Location: Haliburton Scout Reserve
(45.0900°N, 78.3200°W)
Time: 18:34:58
(UTC-04:00)

Courier 1B Rocket - Pass Details

Date: 13 February 2023
Orbit: 920 x 1202 km, 28.2° (Epoch: 22 March)

Event Time Altitude Azimuth Distance (km) Brightness Sun altitude
Rises 13:16:18 0° 229° (SW) 3,909 8.9 30.6°
Reaches altitude 10° 13:20:11 10° 211° (SSW) 2,894 8.9 30.4°
Maximum altitude 13:24:28 17° 173° (S) 2,344 8.4 30.2°
Drops below altitude 10° 13:28:36 10° 134° (SE) 2,767 7.8 30.0°
Sets 13:32:11 0° 115° (ESE) 3,666 8.1 29.8°
